This demonstration page uses our WeatherBlox Daily Observations layout. Learn more.

39.29038, -76.61219

Hourly Observations for June 27, 2019

Temp ( °F °C ) Dew Point ( °F °C ) Humidity (%) Winds ( mph kmh ) Pressure ( in mb ) Visibility ( mi km ) Precip ( " mm )
12:54 am 00:54 undefined 81 27.2 64 17.8 57 57 undefined N/A 30.09 1019 N/A 0 0
1:54 am 01:54 undefined 79 26.1 64 17.8 60 60 undefined N/A 30.09 1019 N/A 0 0
2:54 am 02:54 undefined 79 26.1 64 17.8 60 60 undefined N/A 30.09 1019 N/A 0 0
3:54 am 03:54 undefined 79 26.1 64 17.8 60 60 undefined N/A 30.09 1019 N/A 0 0
4:54 am 04:54 undefined 79 26.1 64 17.8 60 60 undefined N/A 30.12 1020 N/A 0 0
5:54 am 05:54 undefined 80 26.7 64 17.8 58 58 undefined N/A 30.12 1020 N/A 0 0
6:54 am 06:54 undefined 80 26.7 65 18.3 60 60 undefined N/A 30.12 1020 N/A 0 0
7:54 am 07:54 undefined 82 27.8 66 18.9 58 58 undefined N/A 30.15 1021 N/A 0 0
8:54 am 08:54 undefined 85 29.4 62 16.7 46 46 undefined N/A 30.15 1021 N/A 0 0
9:54 am 09:54 undefined 88 31.1 63 17.2 43 43 undefined N/A 30.15 1021 N/A 0 0
10:54 am 10:54 undefined 89 31.7 63 17.2 42 42 undefined N/A 30.15 1021 N/A 0 0
11:54 am 11:54 undefined 91 32.8 62 16.7 38 38 undefined N/A 30.15 1021 N/A 0 0
12:54 pm 12:54 undefined 90 32.2 62 16.7 39 39 undefined N/A 30.12 1020 N/A 0 0
1:54 pm 13:54 undefined 93 33.9 64 17.8 38 38 undefined N/A 30.12 1020 N/A 0.01 0.254
2:54 pm 14:54 undefined 92 33.3 66 18.9 43 43 undefined N/A 30.12 1020 N/A 0 0
3:54 pm 15:54 undefined 93 33.9 67 19.4 42 42 undefined N/A 30.09 1019 N/A 0 0
4:54 pm 16:54 undefined 91 32.8 67 19.4 45 45 undefined N/A 30.09 1019 N/A 0 0
5:54 pm 17:54 undefined 88 31.1 67 19.4 50 50 undefined N/A 30.09 1019 N/A 0 0
6:54 pm 18:54 undefined 87 30.6 69 20.6 55 55 undefined N/A 30.09 1019 N/A 0 0
7:54 pm 19:54 undefined 87 30.6 68 20 53 53 undefined N/A 30.09 1019 N/A 0 0
8:54 pm 20:54 undefined 86 30 67 19.4 53 53 undefined N/A 30.09 1019 N/A 0 0
9:54 pm 21:54 undefined 84 28.9 66 18.9 55 55 undefined N/A 30.12 1020 N/A 0 0
10:54 pm 22:54 undefined 81 27.2 62 16.7 53 53 undefined N/A 30.12 1020 N/A 0 0
11:54 pm 23:54 undefined 80 26.7 62 16.7 54 54 undefined N/A 30.15 1021 N/A 0 0

Powered by AerisWeather